Weather History for KVTA - November, 2013

Change the Weather History Date:

Wednesday, November 20, 2013

  Actual Average Record
Temperature  
Mean Temperature 38 °F -  
Max Temperature 48 °F 51 °F 73 °F (1942)
Min Temperature 28 °F 33 °F 11 °F (1951)
Degree Days  
Heating Degree Days 27    
Moisture  
Dew Point 24 °F    
Average Humidity 66    
Maximum Humidity 85    
Minimum Humidity 41    
Precipitation  
Precipitation 0.00 in - - ()
Sea Level Pressure  
Sea Level Pressure 30.35 in    
Wind  
Wind Speed 3 mph (East)    
Max Wind Speed 13 mph    
Max Gust Speed -    
Visibility 10 miles    
Events      
Averages and records for this station are not official NWS values.
T = Trace of Precipitation, MM = Missing Value Source: NWS Daily Summary

Daily Weather History Graph

Daily Weather History Graph

Search for Another Location

Airport or City:

Trip Planner

Search our weather history database for the weather conditions in past years. The results will help you decide how hot, cold, wet, or windy it might be!

Date:

Astronomy

Nov. 20, 2013 Rise Set
Actual Time 7:21 AM EST 5:09 PM EST
Civil Twilight 6:51 AM EST 5:39 PM EST
Nautical Twilight 6:18 AM EST 6:12 PM EST
Astronomical Twilight 5:46 AM EST 6:44 PM EST
Moon 7:51 PM EST (11/20) 9:45 AM EST (11/20)
Length of Visible Light 10h 47m
Length of Day
9h 48m
Waning Gibbous, 91% of the Moon is Illuminated
Nov 20
Waning Gibbous
Nov 25
Last Quarter
Dec 2
New
Dec 9
First Quarter
Dec 17
Full

Hourly Weather History & Observations

Time (EST) Temp. Windchill Dew Point Humidity Pressure Visibility Wind Dir Wind Speed Gust Speed Precip Events Conditions
12:54 AM 30.9 °F - 23.0 °F 72% 30.40 in 10.0 mi Calm Calm - N/A   Clear
1:54 AM 30.0 °F 25.2 °F 23.0 °F 75% 30.39 in 10.0 mi NE 4.6 mph - N/A   Clear
2:54 AM 28.9 °F 25.2 °F 21.9 °F 75% 30.39 in 10.0 mi ENE 3.5 mph - N/A   Clear
3:54 AM 28.9 °F 23.9 °F 21.9 °F 75% 30.39 in 10.0 mi NE 4.6 mph - N/A   Clear
4:54 AM 28.0 °F 24.2 °F 21.9 °F 78% 30.40 in 10.0 mi NE 3.5 mph - N/A   Clear
5:54 AM 28.0 °F 22.8 °F 21.9 °F 78% 30.40 in 10.0 mi NE 4.6 mph - N/A   Clear
6:54 AM 28.0 °F - 21.0 °F 75% 30.40 in 10.0 mi Calm Calm - N/A   Clear
7:54 AM 28.9 °F - 21.9 °F 75% 30.40 in 10.0 mi Calm Calm - N/A   Clear
8:54 AM 32.0 °F 28.7 °F 23.0 °F 69% 30.42 in 10.0 mi NE 3.5 mph - N/A   Clear
9:54 AM 36.0 °F 30.3 °F 25.0 °F 64% 30.41 in 10.0 mi East 6.9 mph - N/A   Clear
10:54 AM 41.0 °F 35.8 °F 25.0 °F 53% 30.40 in 10.0 mi ESE 8.1 mph - N/A   Clear
11:54 AM 43.0 °F 38.2 °F 26.1 °F 51% 30.36 in 10.0 mi SSE 8.1 mph - N/A   Clear
12:54 PM 45.0 °F 40.6 °F 26.1 °F 48% 30.34 in 10.0 mi East 8.1 mph - N/A   Clear
1:54 PM 46.9 °F - 26.1 °F 44% 30.32 in 10.0 mi East 12.7 mph - N/A   Clear
2:54 PM 48.0 °F - 25.0 °F 41% 30.30 in 10.0 mi ESE 10.4 mph - N/A   Clear
3:54 PM 48.0 °F - 26.1 °F 42% 30.30 in 10.0 mi ESE 5.8 mph - N/A   Clear
4:54 PM 46.0 °F 41.9 °F 25.0 °F 44% 30.30 in 10.0 mi SE 8.1 mph - N/A   Clear
5:54 PM 42.1 °F - 25.0 °F 51% 30.31 in 10.0 mi Calm Calm - N/A   Clear
6:54 PM 36.0 °F - 26.1 °F 67% 30.32 in 10.0 mi Calm Calm - N/A   Clear
7:54 PM 32.0 °F - 26.1 °F 79% 30.32 in 10.0 mi Calm Calm - N/A   Clear
8:54 PM 30.0 °F - 26.1 °F 85% 30.31 in 10.0 mi Calm Calm - N/A   Clear
9:54 PM 32.0 °F - 26.1 °F 79% 30.31 in 10.0 mi Calm Calm - N/A   Clear
10:54 PM 30.9 °F - 26.1 °F 82% 30.30 in 10.0 mi Calm Calm - N/A   Clear
11:54 PM 32.0 °F - 28.0 °F 85% 30.31 in 10.0 mi Calm Calm - N/A   Clear